Location: Dürabuch
(48.2640°N, 11.2185°E)
Time: 01:56:36
(UTC+00:00)

Cosmos 2228 Rocket - Pass Details

Date: 23 May 2024
Orbit: 616 x 648 km, 82.5° (Epoch: 19 June)

Event Time Altitude Azimuth Distance (km) Brightness Sun altitude
Exits shadow 00:05:26 49° 212° (SSW) 818 3.2 -20.1°
Maximum altitude 00:06:33 73° 280° (W) 665 3.1 -20.0°
Drops below altitude 10° 00:11:04 10° 6° (N) 2,035 6.9 -19.8°
Sets 00:13:20 0° 9° (N) 2,954 8.1 -19.7°
